Location: Boiro
(42.6475°N, 8.8834°W)
Time: 15:43:59
(UTC+01:00)

Courier 1B - Visible Passes

Search period start: 09 December 2021 00:00
Search period end: 19 December 2021 00:00
Orbit: 962 x 1209 km, 28.3° (Epoch: 09 December)

Date Brightness Start Highest point End Pass type
(mag) Time Alt. Az. Time Alt. Az. Time Alt. Az.
09 Dec 9.7 19:31:48 10° WSW 19:37:16 22° SSW 19:42:31 10° SSE visible
10 Dec 9.8 18:37:42 10° WSW 18:43:38 24° S 18:49:21 10° SE visible
10 Dec 10.0 20:33:24 10° SW 20:36:39 13° SSW 20:39:49 10° S visible
11 Dec 10.0 19:38:33 10° WSW 19:43:05 17° SSW 19:47:30 10° SSE visible
12 Dec 10.0 18:44:10 10° WSW 18:49:29 20° SSW 18:54:40 10° SSE visible
13 Dec 10.4 19:46:40 10° SW 19:48:50 11° SSW 19:51:00 10° S visible
14 Dec 10.3 18:51:15 10° SW 18:55:16 15° SSW 18:59:14 10° S visible
